Погода в Преображенском

Россия / Ивановская область     56°39′01″N   41°49′59″E
темп.,
°C
ветер,
м/с
пор.,
м/с
влажн.,
%
обл.,
%
осадки,
мм/ч
давл.,
гПа
погр.,
м
8 марта, пн
пн800:00−12з228567 0.0 99221
03:00−12зюз129250 0.0 99321
06:00−11зюз259686 0.2 994102
09:00−9зсз269393 0.3 995298
12:00−6зсз3586100 0.1 997624
15:00−5сз468099 0.2 9991004
18:00−9сз389392 0.1 1002351
21:00−12ссз389585 0.1 1005235
9 марта, вт
вт900:00−14ссз379670 0.0 1007196
03:00−17ссз259770 0.1 1009121
06:00−19ссз369772 0.0 1011148
09:00−18ссз359379 0.1 1013239
12:00−15ссз358874 0.0 1014407
15:00−14ссз468886 0.0 1015550
18:00−16ссз4893100 0.0 1017410
21:00−18с4994100 0.1 1020379
10 марта, ср
ср1000:00−21с389696 0.1 1021281
03:00−24ссз379689 0.1 1022193
06:00−27ссз379618 0.0 1024184
09:00−24ссз36929 0.0 1026264
12:00−19ссз368613 0.0 1026442
15:00−15сз47827 0.0 1026594
18:00−17зсз279265 0.0 1025140
21:00−19сз389677 0.0 1027218
11 марта, чт
чт1100:00−21сз259993 0.0 1027126
03:00−22сз259988 0.0 102894
06:00−21зсз369959 0.0 1028127
09:00−16сз499356 0.0 1029268
12:00−10сз478882 0.0 1028399
15:00−7сз378348 0.0 1028449
18:00−11зсз23931 0.0 102846
21:00−14з23971 0.0 102923
12 марта, пт
пт1200:00−16зюз22960 0.0 103021
03:00−17юз23960 0.0 102926
06:00−18ююз23980 0.0 102980
09:00−14ююз379227 0.0 1028266
12:00−9ююз487719 0.0 1027680
15:00−7ююз597310 0.0 1025857
18:00−10ю412810 0.0 1022523
21:00−12ю5148550 0.0 1022578